KB1DML Weather Reports


Display with metric or nautical units.
time (UTC)temp
F
wind
direction
speed
MPH
gust
MPH
rain 1hr
in
rain 24hr
in
rain mn
in
humidity
%
barometer
mb
20211203224519 38 225 2.0 7.0 0.00 0.04 0.00 45 1011.6
20211203224019 38 225 2.0 5.0 0.00 0.04 0.00 44 1011.7
20211203223519 38 293 2.0 5.0 0.00 0.04 0.00 44 1011.7
20211203223017 38 293 2.0 5.0 0.00 0.04 0.00 44 1011.6
20211203222516 38 225 2.0 5.0 0.00 0.04 0.00 43 1011.6
20211203222019 38 248 2.0 6.0 0.00 0.04 0.00 43 1011.6
20211203221519 38 270 2.0 5.0 0.00 0.04 0.00 43 1011.4
20211203221019 39 225 3.0 9.0 0.00 0.04 0.00 43 1011.3
20211203220516 39 270 2.0 7.0 0.00 0.04 0.00 43 1011.2
20211203220016 39 270 3.0 9.0 0.00 0.04 0.00 43 1011.1
20211203215519 39 270 3.0 9.0 0.00 0.04 0.00 42 1011.0
20211203215019 39 225 4.0 8.0 0.00 0.04 0.00 42 1010.8
20211203214519 39 225 3.0 11.0 0.00 0.04 0.00 43 1010.6
20211203214017 39 225 2.0 9.0 0.00 0.04 0.00 43 1010.4
20211203213516 40 225 2.0 7.0 0.00 0.04 0.00 43 1010.3
20211203213016 40 270 4.0 12.0 0.00 0.04 0.00 43 1010.2
20211203212516 40 293 4.0 11.0 0.00 0.04 0.00 43 1010.1
20211203212016 40 225 3.0 9.0 0.00 0.04 0.00 43 1010.0
20211203211516 40 225 3.0 11.0 0.00 0.04 0.00 43 1010.0
20211203211019 40 225 4.0 13.0 0.00 0.04 0.00 43 1009.9
20211203210516 40 225 4.0 10.0 0.00 0.04 0.00 43 1009.8
20211203210019 41 225 4.0 10.0 0.00 0.04 0.00 42 1009.8
20211203205519 41 293 3.0 9.0 0.00 0.04 0.00 42 1009.8
20211203205019 41 293 3.0 11.0 0.00 0.04 0.00 42 1009.7
20211203204516 41 225 3.0 12.0 0.00 0.04 0.00 42 1009.7
20211203204016 41 270 5.0 12.0 0.00 0.04 0.00 41 1009.7
20211203203519 41 225 3.0 9.0 0.00 0.04 0.00 40 1009.6
20211203203016 41 270 5.0 13.0 0.00 0.04 0.00 40 1009.6
20211203202519 41 270 3.0 10.0 0.00 0.04 0.00 40 1009.4
20211203202019 41 293 4.0 9.0 0.00 0.04 0.00 39 1009.3
20211203201516 41 225 4.0 10.0 0.00 0.04 0.00 39 1009.3
20211203201019 41 225 5.0 12.0 0.00 0.04 0.00 39 1009.2
20211203200516 42 293 4.0 15.0 0.00 0.04 0.00 40 1009.2
20211203200019 42 293 5.0 17.0 0.00 0.04 0.00 39 1009.1
20211203195519 42 270 5.0 21.0 0.00 0.04 0.00 40 1009.0
20211203195019 42 225 4.0 13.0 0.00 0.04 0.00 41 1008.9
20211203194516 42 225 4.0 16.0 0.00 0.04 0.00 42 1008.8
20211203194019 42 270 4.0 10.0 0.00 0.04 0.00 42 1008.6
20211203193519 42 270 3.0 12.0 0.00 0.04 0.00 43 1008.5
20211203193019 42 225 5.0 13.0 0.00 0.04 0.00 42 1008.4
20211203192519 42 293 5.0 12.0 0.00 0.04 0.00 42 1008.3
20211203192019 42 270 5.0 13.0 0.00 0.04 0.00 41 1008.3
20211203191519 42 225 4.0 14.0 0.00 0.04 0.00 42 1008.1
20211203191016 42 270 5.0 13.0 0.00 0.04 0.00 42 1008.0
20211203190519 42 225 4.0 11.0 0.00 0.04 0.00 43 1007.9
20211203190019 42 270 6.0 14.0 0.00 0.04 0.00 42 1007.9
20211203185516 42 225 5.0 17.0 0.00 0.04 0.00 42 1007.9
20211203185019 42 270 5.0 13.0 0.00 0.04 0.00 43 1008.0
20211203184519 42 270 4.0 12.0 0.00 0.04 0.00 43 1007.9
20211203184016 42 270 5.0 14.0 0.00 0.04 0.00 43 1007.9
20211203183519 42 270 5.0 15.0 0.00 0.04 0.00 41 1007.9
20211203183016 42 225 6.0 14.0 0.00 0.04 0.00 41 1007.9
20211203182519 42 270 5.0 16.0 0.00 0.04 0.00 41 1007.9
20211203182019 42 293 6.0 16.0 0.00 0.04 0.00 42 1007.7
20211203181519 42 293 7.0 18.0 0.00 0.04 0.00 42 1007.7
20211203181019 42 293 6.0 18.0 0.00 0.04 0.00 42 1007.6
20211203180519 42 225 6.0 19.0 0.00 0.04 0.00 43 1007.7
20211203180019 42 225 4.0 12.0 0.00 0.04 0.00 42 1007.4
20211203175519 41 225 5.0 16.0 0.00 0.04 0.00 43 1007.4
20211203175019 41 225 6.0 14.0 0.00 0.04 0.00 43 1007.5
20211203174519 41 225 6.0 20.0 0.00 0.04 0.00 43 1007.3
20211203174019 42 225 5.0 13.0 0.00 0.04 0.00 44 1007.3
20211203173519 41 248 5.0 17.0 0.00 0.04 0.00 45 1007.4
20211203173019 41 225 4.0 12.0 0.00 0.04 0.00 46 1007.5
20211203172516 41 270 4.0 10.0 0.00 0.04 0.00 47 1007.5
20211203172019 41 293 4.0 15.0 0.00 0.04 0.00 47 1007.6
20211203171519 41 293 3.0 9.0 0.00 0.04 0.00 48 1007.4
20211203171019 40 293 4.0 13.0 0.00 0.04 0.00 49 1007.5
20211203170516 40 293 5.0 14.0 0.00 0.04 0.00 50 1007.5
20211203170019 39 270 4.0 12.0 0.00 0.04 0.00 50 1007.4
20211203165516 40 270 5.0 11.0 0.00 0.04 0.00 50 1007.5
20211203165019 40 225 4.0 10.0 0.00 0.04 0.00 50 1007.5
20211203164519 40 270 6.0 15.0 0.00 0.04 0.00 49 1007.5
20211203164016 40 270 4.0 12.0 0.00 0.04 0.00 49 1007.5
20211203163519 40 270 5.0 18.0 0.00 0.04 0.00 49 1007.5
20211203163019 40 270 4.0 15.0 0.00 0.04 0.00 50 1007.4
20211203162519 40 270 4.0 14.0 0.00 0.04 0.00 50 1007.3
20211203162019 40 225 4.0 9.0 0.00 0.04 0.00 50 1007.3
20211203161519 40 225 5.0 12.0 0.00 0.04 0.00 49 1007.4
20211203161016 40 270 6.0 15.0 0.00 0.04 0.00 49 1007.4
20211203160519 41 225 5.0 17.0 0.00 0.04 0.00 49 1007.5
20211203160016 40 270 4.0 10.0 0.00 0.04 0.00 49 1007.5
20211203155519 40 225 4.0 11.0 0.00 0.04 0.00 49 1007.5
20211203155019 40 293 5.0 16.0 0.00 0.04 0.00 50 1007.6
20211203154519 40 293 5.0 11.0 0.00 0.04 0.00 50 1007.7
20211203154019 39 293 6.0 14.0 0.00 0.04 0.00 50 1007.6
20211203153519 40 225 5.0 17.0 0.00 0.04 0.00 50 1007.7
20211203153019 40 225 5.0 15.0 0.00 0.04 0.00 50 1007.7
20211203152519 40 270 5.0 13.0 0.00 0.04 0.00 49 1007.6
20211203152019 40 293 6.0 17.0 0.00 0.04 0.00 50 1007.5
20211203151516 40 225 5.0 12.0 0.00 0.04 0.00 51 1007.4
20211203151019 40 225 5.0 15.0 0.00 0.04 0.00 52 1007.3
20211203150519 40 225 5.0 16.0 0.00 0.04 0.00 52 1007.4
20211203150019 40 293 6.0 17.0 0.00 0.04 0.00 53 1007.2
20211203145516 40 270 6.0 15.0 0.00 0.04 0.00 54 1007.1
20211203145016 39 293 6.0 18.0 0.00 0.04 0.00 54 1007.0
20211203144516 39 270 5.0 17.0 0.00 0.04 0.00 54 1006.9
20211203144016 39 293 5.0 15.0 0.00 0.04 0.00 55 1006.8
20211203143519 39 293 6.0 17.0 0.00 0.04 0.00 55 1006.9
20211203143019 39 270 4.0 12.0 0.00 0.04 0.00 55 1007.1
20211203142519 39 270 5.0 12.0 0.00 0.04 0.00 55 1006.9
20211203142019 39 270 6.0 17.0 0.00 0.04 0.00 54 1006.8
20211203141519 39 270 4.0 12.0 0.00 0.04 0.00 56 1006.7
20211203141016 39 270 6.0 17.0 0.00 0.04 0.00 55 1006.6
20211203140519 39 293 6.0 17.0 0.00 0.04 0.00 55 1006.7
20211203140019 39 270 8.0 27.0 0.00 0.04 0.00 55 1006.6
20211203135516 39 270 5.0 6.0 0.00 0.04 0.00 56 1006.7
20211203135019 39 293 5.0 15.0 0.00 0.04 0.00 56 1006.5
20211203134516 39 225 6.0 17.0 0.00 0.04 0.00 56 1006.3
20211203134019 39 225 4.0 12.0 0.00 0.04 0.00 57 1006.2
20211203133519 39 270 5.0 22.0 0.00 0.04 0.00 57 1006.0
20211203133016 39 270 6.0 22.0 0.00 0.04 0.00 58 1006.0
20211203132516 39 270 5.0 19.0 0.00 0.04 0.00 58 1005.6
20211203132017 40 270 5.0 16.0 0.00 0.04 0.00 60 1005.5
20211203131518 40 270 5.0 20.0 0.00 0.04 0.00 60 1005.1
20211203131016 40 293 5.0 20.0 0.00 0.04 0.00 61 1004.8
20211203130519 40 270 5.0 15.0 0.00 0.04 0.00 61 1004.7
20211203130019 40 225 6.0 17.0 0.00 0.04 0.00 61 1004.5
20211203125516 40 248 5.0 15.0 0.00 0.04 0.00 61 1004.2
20211203125019 41 225 4.0 11.0 0.00 0.04 0.00 62 1004.2
20211203124515 41 225 6.0 7.0 0.00 0.04 0.00 63 1004.4
20211203124019 41 293 5.0 12.0 0.00 0.04 0.00 64 1004.3
20211203123519 41 270 5.0 14.0 0.00 0.04 0.00 65 1004.3
20211203123019 41 293 5.0 13.0 0.00 0.04 0.00 66 1004.2
20211203122518 41 270 4.0 10.0 0.00 0.04 0.00 66 1004.2
20211203122016 41 225 4.0 16.0 0.00 0.04 0.00 66 1004.0
20211203121519 41 270 4.0 9.0 0.00 0.04 0.00 66 1003.9
20211203121019 41 225 4.0 8.0 0.00 0.04 0.00 66 1003.9
20211203120519 41 225 4.0 10.0 0.00 0.04 0.00 66 1003.7
20211203120018 41 225 3.0 8.0 0.00 0.04 0.00 67 1003.7
20211203115518 41 225 3.0 9.0 0.00 0.04 0.00 67 1003.5
20211203115016 41 225 3.0 10.0 0.00 0.04 0.00 67 1003.3
20211203114516 41 225 4.0 8.0 0.00 0.04 0.00 67 1003.1
20211203114019 41 225 4.0 10.0 0.00 0.04 0.00 67 1003.1
20211203113519 41 225 3.0 9.0 0.00 0.04 0.00 67 1002.9
20211203113019 41 225 3.0 13.0 0.00 0.04 0.00 67 1002.8
20211203112516 41 225 4.0 13.0 0.00 0.04 0.00 67 1002.7
20211203112019 41 225 4.0 8.0 0.00 0.04 0.00 67 1002.6
20211203111518 41 225 4.0 11.0 0.00 0.04 0.00 67 1002.4
20211203111019 41 225 4.0 9.0 0.00 0.04 0.00 67 1002.2
20211203110518 42 225 3.0 8.0 0.00 0.04 0.00 67 1002.2
20211203110018 42 225 3.0 12.0 0.00 0.04 0.00 67 1002.2
20211203105518 42 225 4.0 10.0 0.00 0.04 0.00 66 1002.0
20211203105018 42 225 5.0 13.0 0.00 0.04 0.00 67 1002.0
20211203104518 42 225 5.0 16.0 0.00 0.04 0.00 67 1001.8
20211203104018 42 225 4.0 9.0 0.00 0.04 0.00 67 1001.6
20211203103518 42 225 5.0 18.0 0.00 0.04 0.00 67 1001.5
20211203103018 42 225 4.0 10.0 0.00 0.04 0.00 67 1001.4
20211203102518 42 225 5.0 19.0 0.00 0.04 0.00 67 1001.3
20211203102019 42 225 5.0 19.0 0.00 0.04 0.00 68 1001.1
20211203101519 42 225 4.0 11.0 0.00 0.04 0.00 68 1000.8
20211203101018 42 225 5.0 15.0 0.00 0.04 0.00 68 1000.8
20211203100519 42 248 4.0 11.0 0.00 0.04 0.00 69 1000.7
20211203100018 42 225 4.0 13.0 0.00 0.04 0.00 69 1000.4
20211203095518 42 225 5.0 11.0 0.00 0.04 0.00 70 1000.3
20211203095018 42 225 4.0 12.0 0.00 0.04 0.00 70 1000.2
20211203094519 42 225 4.0 11.0 0.00 0.04 0.00 70 1000.2
20211203094018 42 225 5.0 12.0 0.00 0.04 0.00 70 1000.1
20211203093515 43 225 4.0 14.0 0.00 0.04 0.00 70 1000.0
20211203093016 43 225 5.0 10.0 0.00 0.04 0.00 71 999.9
20211203092518 43 225 6.0 13.0 0.00 0.04 0.00 71 999.9
20211203092016 43 225 4.0 12.0 0.00 0.04 0.00 72 999.8
20211203091516 43 225 5.0 12.0 0.00 0.04 0.00 72 999.8
20211203091019 43 225 3.0 7.0 0.00 0.04 0.00 73 999.7
20211203090518 43 225 5.0 14.0 0.00 0.04 0.00 73 999.6
20211203090019 43 225 4.0 12.0 0.00 0.04 0.00 74 999.6
20211203085519 43 225 5.0 11.0 0.00 0.04 0.00 74 999.6
20211203085019 43 225 5.0 14.0 0.00 0.04 0.00 75 999.6
20211203084518 43 225 5.0 11.0 0.00 0.04 0.00 75 999.6
20211203084016 43 225 6.0 16.0 0.00 0.04 0.00 76 999.4
20211203083516 43 225 6.0 15.0 0.00 0.04 0.00 77 999.5
20211203083016 43 225 5.0 16.0 0.00 0.04 0.00 78 999.4
20211203082519 43 225 6.0 16.0 0.00 0.04 0.00 78 999.4
20211203082019 43 225 5.0 11.0 0.00 0.04 0.00 79 999.5
20211203081518 43 225 4.0 11.0 0.00 0.04 0.00 79 999.5
20211203081019 43 225 4.0 9.0 0.00 0.04 0.00 80 999.4
20211203080518 43 225 4.0 9.0 0.00 0.04 0.00 80 999.4
20211203080019 43 225 4.0 7.0 0.00 0.04 0.00 80 999.3
20211203075515 43 225 3.0 9.0 0.00 0.04 0.00 81 999.2
20211203075016 43 225 2.0 7.0 0.00 0.04 0.00 81 999.2
20211203074518 43 225 3.0 11.0 0.00 0.04 0.00 81 999.2
20211203074019 43 225 2.0 5.0 0.00 0.04 0.00 81 999.2
20211203073519 43 225 3.0 7.0 0.00 0.04 0.00 81 999.1
20211203073019 43 225 4.0 10.0 0.00 0.04 0.00 81 998.9
20211203072515 43 225 5.0 11.0 0.00 0.04 0.00 81 998.9
20211203072016 43 225 4.0 9.0 0.00 0.04 0.00 81 998.9
20211203071518 43 225 4.0 8.0 0.00 0.04 0.00 81 998.8
20211203071018 43 225 4.0 11.0 0.00 0.04 0.00 81 998.8
20211203070518 43 225 3.0 7.0 0.00 0.04 0.00 81 998.8
20211203070019 43 225 4.0 8.0 0.00 0.04 0.00 81 998.7
20211203065519 43 225 4.0 8.0 0.00 0.04 0.00 82 998.5
20211203065015 43 225 4.0 8.0 0.00 0.04 0.00 82 998.5
20211203064515 43 225 4.0 10.0 0.00 0.04 0.00 82 998.5
20211203064019 44 225 5.0 10.0 0.00 0.04 0.00 82 998.5
20211203063519 44 225 4.0 8.0 0.00 0.04 0.00 82 998.4
20211203063018 44 225 5.0 11.0 0.00 0.04 0.00 82 998.4
20211203062518 44 225 4.0 12.0 0.00 0.04 0.00 82 998.2
20211203062015 44 225 4.0 9.0 0.00 0.04 0.00 83 998.1
20211203061516 44 225 3.0 8.0 0.00 0.04 0.00 83 998.1
20211203061016 44 225 4.0 12.0 0.00 0.04 0.00 83 997.9
20211203060518 44 225 3.0 8.0 0.00 0.04 0.00 83 997.8
20211203060019 44 225 3.0 7.0 0.00 0.04 0.00 83 997.8
20211203055516 44 225 3.0 6.0 0.00 0.04 0.00 83 997.7
20211203055015 44 225 3.0 8.0 0.00 0.04 0.00 83 997.6
20211203054519 44 225 3.0 10.0 0.00 0.04 0.00 83 997.6
20211203054018 44 225 3.0 7.0 0.00 0.04 0.00 84 997.3
20211203053518 44 225 2.0 6.0 0.00 0.04 0.00 84 997.3
20211203053015 44 225 2.0 7.0 0.00 0.04 0.00 84 997.4
20211203052515 44 225 4.0 9.0 0.00 0.04 0.00 84 997.4
20211203052015 44 225 5.0 12.0 0.00 0.04 0.00 84 997.5
20211203051518 44 225 4.0 14.0 0.00 0.04 0.00 84 997.6
20211203051019 45 225 4.0 11.0 0.00 0.04 0.00 84 997.7
20211203050518 45 225 4.0 9.0 0.00 0.04 0.00 84 997.5
20211203050015 45 225 4.0 11.0 0.00 0.04 0.04 84 997.5
20211203045516 45 225 3.0 7.0 0.01 0.04 0.04 84 997.3
20211203045019 45 225 3.0 6.0 0.01 0.04 0.04 84 996.9
20211203044519 45 225 3.0 9.0 0.02 0.04 0.04 84 997.1
20211203044019 45 225 3.0 6.0 0.02 0.04 0.04 84 997.4
20211203043519 45 225 4.0 10.0 0.02 0.04 0.04 83 997.6
20211203043019 45 225 5.0 9.0 0.02 0.04 0.04 83 997.4
20211203042519 45 225 3.0 10.0 0.02 0.04 0.04 83 997.5
20211203042019 45 225 2.0 7.0 0.02 0.04 0.04 82 997.4
20211203041516 46 225 2.0 6.0 0.03 0.04 0.04 82 997.2
20211203041019 46 248 2.0 7.0 0.04 0.04 0.04 81 997.3
20211203040516 46 225 3.0 7.0 0.04 0.04 0.04 81 997.5
20211203040019 46 225 3.0 9.0 0.04 0.04 0.04 80 997.5
20211203035516 46 293 3.0 11.0 0.03 0.03 0.03 80 997.7
20211203035016 47 225 4.0 14.0 0.03 0.03 0.03 79 998.0
20211203034516 47 248 5.0 17.0 0.02 0.02 0.02 78 998.0
20211203034019 48 225 5.0 13.0 0.02 0.02 0.02 77 998.0
20211203033519 48 293 5.0 18.0 0.02 0.02 0.02 76 997.8
20211203033019 49 270 6.0 15.0 0.02 0.02 0.02 75 998.2
20211203032519 50 225 6.0 15.0 0.02 0.02 0.02 75 998.1
20211203032019 51 225 8.0 20.0 0.02 0.02 0.02 75 997.7
20211203031519 53 225 10.0 24.0 0.01 0.01 0.01 74 997.2
20211203031019 53 225 3.0 9.0 0.00 0.00 0.00 76 996.3
20211203030516 53 225 2.0 6.0 0.00 0.00 0.00 75 995.7
20211203030016 53 225 2.0 6.0 0.00 0.00 0.00 75 995.4
20211203025519 53 225 2.0 8.0 0.00 0.00 0.00 75 995.4
20211203025019 53 225 3.0 10.0 0.00 0.00 0.00 75 995.5
20211203024516 54 203 3.0 8.0 0.00 0.00 0.00 75 995.6
20211203024016 54 225 2.0 6.0 0.00 0.00 0.00 74 995.6
20211203023519 54 203 2.0 7.0 0.00 0.00 0.00 74 995.8
20211203023019 54 180 4.0 8.0 0.00 0.00 0.00 74 995.7
20211203022516 54 225 3.0 7.0 0.00 0.00 0.00 74 995.9
20211203022019 54 225 4.0 8.0 0.00 0.00 0.00 74 995.9
20211203021519 54 203 3.0 7.0 0.00 0.00 0.00 74 995.9
20211203021016 54 203 3.0 8.0 0.00 0.00 0.00 74 995.9
20211203020519 54 203 3.0 7.0 0.00 0.00 0.00 74 995.9
20211203020019 54 203 3.0 9.0 0.00 0.00 0.00 74 996.0
20211203015519 54 180 4.0 9.0 0.00 0.00 0.00 74 996.0
20211203015016 54 203 3.0 8.0 0.00 0.00 0.00 73 996.0
20211203014519 54 180 4.0 8.0 0.00 0.00 0.00 73 996.0
20211203014019 54 158 5.0 12.0 0.00 0.00 0.00 73 995.9
20211203013516 54 180 4.0 13.0 0.00 0.00 0.00 73 996.0
20211203013016 54 180 4.0 10.0 0.00 0.00 0.00 73 996.1
20211203012516 54 135 3.0 11.0 0.00 0.00 0.00 73 996.1
20211203012016 54 135 4.0 10.0 0.00 0.00 0.00 72 996.2
20211203011516 55 203 3.0 8.0 0.00 0.00 0.00 72 996.3
20211203011016 55 180 4.0 10.0 0.00 0.00 0.00 72 996.4
20211203010519 55 180 4.0 12.0 0.00 0.00 0.00 72 996.4
20211203010019 55 180 4.0 11.0 0.00 0.00 0.00 72 996.6
20211203005516 55 180 5.0 14.0 0.00 0.00 0.00 72 996.7
20211203005019 55 180 3.0 8.0 0.00 0.00 0.00 72 996.8
20211203004519 55 180 5.0 10.0 0.00 0.00 0.00 72 996.9
20211203004019 55 203 5.0 12.0 0.00 0.00 0.00 72 997.0
20211203003519 55 180 5.0 11.0 0.00 0.00 0.00 72 997.2
20211203003019 55 225 4.0 9.0 0.00 0.00 0.00 72 997.3
20211203002519 55 180 4.0 12.0 0.00 0.00 0.00 72 997.4
20211203002016 55 180 4.0 11.0 0.00 0.00 0.00 72 997.5
20211203001519 55 225 4.0 10.0 0.00 0.00 0.00 72 997.6
20211203001016 55 180 6.0 13.0 0.00 0.00 0.00 72 997.7
20211203000516 55 225 2.0 8.0 0.00 0.00 0.00 73 997.8
20211203000016 55 180 4.0 12.0 0.00 0.00 0.00 73 997.8
20211202235516 55 180 4.0 9.0 0.00 0.00 0.00 73 997.9
20211202235017 55 180 6.0 16.0 0.00 0.00 0.00 73 998.0
20211202234516 55 203 4.0 10.0 0.00 0.00 0.00 73 998.1
20211202234016 55 180 4.0 12.0 0.00 0.00 0.00 73 998.1
20211202233516 55 203 5.0 10.0 0.00 0.00 0.00 73 998.2
20211202233016 55 180 4.0 10.0 0.00 0.00 0.00 73 998.2
20211202232516 55 225 4.0 13.0 0.00 0.00 0.00 73 998.3
20211202232016 55 158 4.0 10.0 0.00 0.00 0.00 73 998.3
20211202231519 55 158 5.0 11.0 0.00 0.00 0.00 73 998.3
20211202231019 55 180 4.0 10.0 0.00 0.00 0.00 73 998.4
20211202230519 55 180 3.0 10.0 0.00 0.00 0.00 73 998.5
20211202230019 55 180 3.0 9.0 0.00 0.00 0.00 72 998.5
20211202225519 55 135 3.0 10.0 0.00 0.00 0.00 72 998.5
20211202225019 55 158 4.0 9.0 0.00 0.00 0.00 72 998.6